• In Belarus
  • List of Countries
  • For 7 days
  • Water Temperature
  • Satellite Maps
  • Weather Map
  • Weather Widgets
  • user-avatar
    Login

    Hourly Weather Saint-Eustache

    Today, 23 January, Tuesday

    Time Temperature Precipitation Wind Pressure Humidity
    00:00 -5°C° 1.5 mm 5 mps 757 mmHg 97%
    01:00 -4°C° 1.5 mm 5 mps 756 mmHg 97%
    02:00 -4°C° 1.5 mm 5 mps 755 mmHg 97%
    03:00 -2°C° 1.5 mm 5 mps 754 mmHg 97%
    04:00 -2°C° 1.5 mm 4 mps 753 mmHg 97%
    05:00 -1°C° 1.2 mm 4 mps 752 mmHg 98%
    06:00 -1°C° 1.2 mm 4 mps 751 mmHg 98%
    07:00 0°C° 1.2 mm 4 mps 750 mmHg 98%
    08:00 0°C° 1 mm 4 mps 749 mmHg 98%
    09:00 +1°C° 1 mm 3 mps 749 mmHg 99%
    10:00 +2°C° 1 mm 3 mps 748 mmHg 99%
    11:00 +2°C° 1.3 mm 3 mps 747 mmHg 99%
    12:00 +2°C° 1.3 mm 3 mps 746 mmHg 99%
    13:00 +2°C° 1.3 mm 3 mps 745 mmHg 99%
    14:00 +2°C° 0.2 mm 3 mps 745 mmHg 99%
    15:00 +3°C° 0.2 mm 2 mps 744 mmHg 99%
    16:00 +3°C° 0.2 mm 2 mps 743 mmHg 98%
    17:00 +2°C° 0.1 mm 3 mps 743 mmHg 97%
    18:00 +2°C° 0.1 mm 3 mps 743 mmHg 96%
    19:00 +1°C° 0.1 mm 4 mps 743 mmHg 95%
    20:00 0°C° 0.2 mm 5 mps 742 mmHg 94%
    21:00 0°C° 0.2 mm 5 mps 742 mmHg 93%
    22:00 -1°C° 0.2 mm 6 mps 742 mmHg 92%
    23:00 -1°C° 0.1 mm 6 mps 742 mmHg 91%

    Tomorrow, 24 January, Wednesday

    Time Temperature Precipitation Wind Pressure Humidity
    00:00 -2°C° 0.1 mm 6 mps 743 mmHg 90%
    01:00 -2°C° 0.1 mm 6 mps 743 mmHg 89%
    02:00 -4°C° 0 mm 7 mps 744 mmHg 87%
    03:00 -7°C° 0 mm 7 mps 745 mmHg 85%
    04:00 -10°C° 0 mm 8 mps 746 mmHg 83%
    05:00 -9°C° 0 mm 7 mps 747 mmHg 82%
    06:00 -11°C° 0 mm 7 mps 749 mmHg 81%
    07:00 -12°C° 0 mm 7 mps 750 mmHg 80%
    08:00 -12°C° 0 mm 7 mps 751 mmHg 79%
    09:00 -13°C° 0 mm 7 mps 753 mmHg 78%
    10:00 -13°C° 0 mm 7 mps 754 mmHg 78%
    11:00 -13°C° 0 mm 7 mps 754 mmHg 78%
    12:00 -11°C° 0 mm 6 mps 755 mmHg 77%
    13:00 -11°C° 0 mm 6 mps 755 mmHg 77%
    14:00 -12°C° 0 mm 6 mps 756 mmHg 78%
    15:00 -12°C° 0 mm 6 mps 756 mmHg 78%
    16:00 -12°C° 0 mm 5 mps 757 mmHg 79%
    17:00 -13°C° 0 mm 5 mps 758 mmHg 79%
    18:00 -14°C° 0 mm 5 mps 759 mmHg 79%
    19:00 -16°C° 0 mm 4 mps 760 mmHg 79%
    20:00 -16°C° 0 mm 4 mps 760 mmHg 80%
    21:00 -17°C° 0 mm 4 mps 761 mmHg 81%
    22:00 -18°C° 0 mm 4 mps 761 mmHg 82%
    23:00 -17°C° 0 mm 3 mps 761 mmHg 83%

    Day after tomorrow, 25 January, Thursday

    Time Temperature Precipitation Wind Pressure Humidity
    00:00 -18°C° 0 mm 3 mps 762 mmHg 84%
    01:00 -18°C° 0 mm 3 mps 762 mmHg 84%
    02:00 -19°C° 0 mm 3 mps 763 mmHg 85%
    03:00 -21°C° 0 mm 3 mps 763 mmHg 85%
    04:00 -21°C° 0 mm 3 mps 764 mmHg 85%
    05:00 -22°C° 0 mm 3 mps 764 mmHg 85%
    06:00 -22°C° 0 mm 3 mps 765 mmHg 85%
    07:00 -23°C° 0 mm 3 mps 765 mmHg 85%
    08:00 -22°C° 0 mm 3 mps 766 mmHg 83%
    09:00 -23°C° 0 mm 4 mps 766 mmHg 82%
    10:00 -22°C° 0 mm 4 mps 767 mmHg 80%
    11:00 -20°C° 0 mm 4 mps 767 mmHg 80%
    12:00 -19°C° 0 mm 4 mps 767 mmHg 79%
    13:00 -19°C° 0 mm 5 mps 767 mmHg 79%
    14:00 -19°C° 0 mm 5 mps 767 mmHg 79%
    15:00 -17°C° 0 mm 4 mps 767 mmHg 79%
    16:00 -17°C° 0 mm 4 mps 768 mmHg 79%
    17:00 -18°C° 0 mm 4 mps 768 mmHg 80%
    18:00 -18°C° 0 mm 4 mps 769 mmHg 82%
    19:00 -18°C° 0 mm 3 mps 769 mmHg 84%
    20:00 -18°C° 0 mm 3 mps 770 mmHg 84%
    21:00 -18°C° 0 mm 3 mps 770 mmHg 85%
    22:00 -19°C° 0 mm 3 mps 771 mmHg 85%
    23:00 -18°C° 0 mm 2 mps 771 mmHg 86%

    26 January, Friday

    Time Temperature Precipitation Wind Pressure Humidity
    00:00 -18°C° 0 mm 2 mps 771 mmHg 87%
    01:00 -19°C° 0 mm 2 mps 771 mmHg 87%
    02:00 -19°C° 0 mm 2 mps 771 mmHg 87%
    03:00 -17°C° 0 mm 1 mps 771 mmHg 87%
    04:00 -17°C° 0 mm 1 mps 772 mmHg 86%
    05:00 -17°C° 0 mm 1 mps 772 mmHg 86%
    06:00 -17°C° 0 mm 0 mps 772 mmHg 85%
    07:00 -17°C° 0 mm 0 mps 773 mmHg 84%
    08:00 -16°C° 0 mm 0 mps 773 mmHg 82%
    09:00 -14°C° 0 mm 1 mps 773 mmHg 80%
    10:00 -13°C° 0 mm 1 mps 773 mmHg 77%
    11:00 -12°C° 0 mm 1 mps 772 mmHg 77%
    12:00 -12°C° 0 mm 2 mps 771 mmHg 78%
    13:00 -10°C° 0 mm 2 mps 770 mmHg 78%
    14:00 -10°C° 0 mm 2 mps 770 mmHg 79%
    15:00 -12°C° 0 mm 3 mps 769 mmHg 81%
    16:00 -12°C° 0 mm 3 mps 769 mmHg 83%
    17:00 -13°C° 0 mm 3 mps 768 mmHg 83%
    18:00 -13°C° 0 mm 3 mps 768 mmHg 83%
    19:00 -14°C° 0 mm 3 mps 767 mmHg 83%
    20:00 -14°C° 0 mm 3 mps 767 mmHg 83%
    21:00 -14°C° 0 mm 3 mps 766 mmHg 83%
    22:00 -13°C° 0 mm 3 mps 765 mmHg 83%
    23:00 -13°C° 0 mm 3 mps 764 mmHg 84%

    27 January, Saturday

    Time Temperature Precipitation Wind Pressure Humidity
    00:00 -12°C° 0 mm 3 mps 763 mmHg 84%
    01:00 -10°C° 0 mm 3 mps 763 mmHg 84%
    02:00 -9°C° 0 mm 3 mps 762 mmHg 84%
    03:00 -8°C° 0 mm 3 mps 761 mmHg 83%
    04:00 -7°C° 0 mm 3 mps 760 mmHg 83%
    05:00 -6°C° 0 mm 3 mps 759 mmHg 82%
    06:00 -5°C° 0 mm 3 mps 758 mmHg 82%
    07:00 -4°C° 0 mm 3 mps 758 mmHg 81%
    08:00 -3°C° 0.4 mm 4 mps 757 mmHg 83%
    09:00 -2°C° 0.4 mm 4 mps 757 mmHg 85%
    10:00 0°C° 0.4 mm 5 mps 756 mmHg 87%
    11:00 0°C° 0.4 mm 5 mps 756 mmHg 90%
    12:00 +1°C° 0.4 mm 6 mps 755 mmHg 92%
    13:00 +1°C° 0.4 mm 6 mps 755 mmHg 94%
    14:00 +1°C° 0 mm 6 mps 755 mmHg 93%
    15:00 +1°C° 0 mm 6 mps 755 mmHg 92%
    16:00 +1°C° 0 mm 6 mps 755 mmHg 91%
    17:00 +1°C° 0 mm 6 mps 755 mmHg 88%
    18:00 +1°C° 0 mm 6 mps 755 mmHg 85%
    19:00 +1°C° 0 mm 6 mps 756 mmHg 82%
    20:00 -1°C° 0 mm 6 mps 756 mmHg 81%
    21:00 -1°C° 0 mm 6 mps 756 mmHg 80%
    22:00 -1°C° 0 mm 6 mps 756 mmHg 78%
    23:00 -2°C° 0 mm 6 mps 756 mmHg 79%

    28 January, Sunday

    Time Temperature Precipitation Wind Pressure Humidity
    00:00 -2°C° 0 mm 6 mps 757 mmHg 79%
    01:00 -2°C° 0 mm 6 mps 757 mmHg 79%
    02:00 -3°C° 0 mm 6 mps 757 mmHg 80%
    03:00 -3°C° 0 mm 6 mps 758 mmHg 81%
    04:00 -4°C° 0 mm 5 mps 758 mmHg 82%
    05:00 -5°C° 0 mm 5 mps 758 mmHg 83%
    06:00 -4°C° 0 mm 4 mps 759 mmHg 85%
    07:00 -5°C° 0 mm 3 mps 760 mmHg 87%
    08:00 -5°C° 0 mm 4 mps 760 mmHg 86%
    09:00 -4°C° 0 mm 4 mps 761 mmHg 85%
    10:00 -4°C° 0 mm 4 mps 761 mmHg 85%
    11:00 -4°C° 0 mm 4 mps 761 mmHg 83%
    12:00 -2°C° 0 mm 3 mps 761 mmHg 81%
    13:00 -2°C° 0 mm 3 mps 761 mmHg 79%
    14:00 -4°C° 0 mm 3 mps 761 mmHg 80%
    15:00 -5°C° 0 mm 3 mps 762 mmHg 81%
    16:00 -4°C° 0 mm 2 mps 762 mmHg 82%
    17:00 -5°C° 0 mm 2 mps 762 mmHg 84%
    18:00 -6°C° 0 mm 2 mps 763 mmHg 85%
    19:00 -7°C° 0 mm 2 mps 764 mmHg 86%
    20:00 -8°C° 0 mm 2 mps 764 mmHg 86%
    21:00 -8°C° 0 mm 2 mps 764 mmHg 86%
    22:00 -10°C° 0 mm 3 mps 765 mmHg 86%
    23:00 -12°C° 0.1 mm 3 mps 765 mmHg 86%
    Show more